www.pogodaiklimat.ru
ПОГОДА в Ниинисало
Время
(UTC), дата
21 5.07
00 6.07
03 6.07
06 6.07
09 6.07
12 6.07
15 6.07
18 6.07
21 6.07
00 7.07
03 7.07
06 7.07
09 7.07
12 7.07
15 7.07
18 7.07
21 7.07
00 8.07
03 8.07
06 8.07
09 8.07
12 8.07
15 8.07
18 8.07
21 8.07
00 9.07
03 9.07
06 9.07
09 9.07
12 9.07
15 9.07
18 9.07
21 9.07
00 10.07
03 10.07
06 10.07
09 10.07
12 10.07
15 10.07
18 10.07
21 10.07
00 11.07
03 11.07
06 11.07
09 11.07
12 11.07
15 11.07
18 11.07
21 11.07
00 12.07
03 12.07
06 12.07
09 12.07
12 12.07
15 12.07
18 12.07
Ветер
(напр.,м/с)
Видим. Явления Облачность Т
(С)
Тd
(С)
f
(%)
Тe
(С)
Тes
(С)
Комфортность P
(гПа)
Po
(гПа)
Тmin
(С)
Tmax
(С)
R
(мм)
R24
(мм)
S
(см)
Ю 3 5000 м в посл. час дождь {ливн. дождь} 10/0 100 м
[St]
+13.1 +12.8 98 +12 +12 987.4 973.2
Ю 5 9000 м дымка {ливн. дождь, дождь} 10/0 300 м
[St As op]
+14.6 +13.3 92 +13 +13 987.2 973.1
Ю 4 35 км 9/0 600 м
[Sc Ac trans]
+12.7 +11.1 90 +11 +11 987.4 973.2
Ю 5 40 км в посл. час ливневой дождь 9/0 600 м
[Cu Sc]
+13.0 +10.9 87 +11 +12 987.9 973.7 14
Ю 4 40 км слаб. ливневой дождь 9/0 600 м
[Cu Sc]
+13.6 +9.6 77 +12 +17 989.6 975.4
Ю 5 15 км ливневой дождь 9/0 600 м
[Cb cap]
+13.6 +9.8 78 +12 +15 991.0 976.8
Ю 6 30 км слаб. ливневой дождь {гроза} 9/0 600 м
[Cb cap Ac trans]
+14.5 +9.8 73 +13 +14 991.5 977.4
Ю 7 40 км {гроза, ливн. дождь} 8/0 1000 м
[Cb cap]
+14.2 +8.9 70 +12 +12 992.6 978.4 2
ЮВ 6 35 км осадки на расстоянии {ливн. дождь} 9/0 1500 м
[Sc Ac As]
+13.4 +9.4 77 +11 +11 992.4 978.2
Ю 4 9000 м в посл. час ливневой дождь 9/0 300 м
[Frnb Ac As]
+12.1 +10.9 92 +10 +10 993.6 979.3
Ю 4 5000 м дождь {ливн. дождь} 10/0 300 м
[Frnb As op]
+11.9 +11.0 94 +10 +10 994.2 979.9
Ю 4 30 км {дождь} 9/0 100 м
[St]
+13.2 +12.2 94 +11 +13 995.2 980.9 9
Ю 4 30 км слаб. ливневой дождь 8/0 300 м
[Cb cap]
+15.2 +11.9 81 +14 +19 996.7 982.5
З 4 20 км в посл. час ливневой дождь 8/0 300 м
[Cb cap]
+14.4 +12.5 88 +13 +18 999.1 984.8
ЮЗ 4 6000 м слаб. ливневой дождь 9/0 200 м
[Frnb]
+13.1 +12.1 94 +11 +13 1000.8 986.5
ЮЗ 3 40 км {ливн. дождь} 8/0 300 м
[Cu med, cong Ac trans Ci fib]
+12.8 +10.1 84 +11 +12 1002.4 988.0 5
Ю 3 40 км 4/0 600 м
[Sc Ac lent]
+10.9 +9.6 92 +9 +9 1003.4 988.9
ЮВ 2 20 км 3/0 2000 м
[Ac As Ci fib]
+8.9 +7.9 93 +7 +7 1003.5 988.9
ЮВ 2 20 км 1/0 300 м
[St Ac As]
+9.0 +8.6 97 +7 +8 1003.2 988.6
В 1 20 км 4/0 100 м
[St Ac trans Ci sp]
+12.8 +10.3 85 +13 +18 1002.7 988.3 0.0
Ю 4 35 км гроза без осадков 8/0 600 м
[Cb cap Ac cuf Ci sp]
+16.9 +8.3 57 +16 +21 1002.6 988.4
Ю 4 35 км слаб. ливневой дождь {гроза} 10/0 300 м
[Cu med, cong Ac As Ci ing]
+14.2 +10.3 77 +13 +17 1003.7 989.4
Ю 2 40 км в посл. час ливневой дождь 9/0 300 м
[Cu hum Ac As]
+13.0 +10.1 83 +12 +14 1003.9 989.5
ЮВ 1 40 км {ливн. дождь} 5/0 600 м
[Cb cap Ac As Ci fib]
+11.8 +9.0 83 +12 +12 1004.3 989.8 2
В 1 40 км {ливн. дождь} 4/0 300 м
[Cu Sc Ac As]
+9.6 +8.5 93 +9 +9 1004.6 990.0
ЮВ 1 25 км {ливн. дождь} 9/0 600 м
[Sc Ac As]
+9.2 +8.6 96 +8 +8 1004.5 989.9
штиль 0 23 км слаб. ливневой дождь 9/0 50 м
[Frnb]
+8.6 +8.2 97 +8 +8 1005.1 990.5
Ю 2 40 км {ливн. дождь} 8/0 200 м
[St Ac trans Ci sp]
+10.3 +8.6 89 +9 +12 1005.4 990.8 0.0
Ю 3 30 км 8/0 600 м
[Cb calv Ci fib]
+13.8 +7.4 65 +13 +21 1004.8 990.4
З 1 25 км слаб. ливневой дождь 8/0 600 м
[Cb cap Ci sp]
+13.1 +8.9 76 +13 +25 опасность
простуды
1005.4 991.0
В 2 40 км 8/0 300 м
[Cu hum Ac As Ci sp]
+13.6 +9.8 78 +13 +16 1006.2 991.8
З 4 40 км 9/0 1500 м
[Cu med, cong Ac trans]
+13.1 +7.4 68 +11 +12 1006.9 992.5 5
ЮЗ 2 40 км в посл. час ливневой дождь 8/0 1000 м
[Cu Sc Ac trans]
+10.1 +9.4 95 +8 +8 1007.7 993.1
Ю 3 40 км {ливн. дождь} 8/0 1000 м
[Sc Ac trans Ci fib]
+9.8 +9.0 95 +7 +7 1007.9 993.3
Ю 3 40 км 5/0 1000 м
[Sc Ac trans Ci fib]
+9.4 +8.6 95 +7 +7 1007.6 993.0
ЮЗ 4 40 км 4/0 300 м
[St Ac As Ci fib]
+14.0 +10.2 78 +13 +16 1007.8 993.4 0.8
З 5 40 км 8/0 1000 м
[Cu hum Ac As]
+16.3 +7.3 55 +15 +18 1008.1 993.8
З 5 40 км 6/0 1500 м
[Cu hum Ci fib]
+17.2 +7.1 51 +17 +22 1008.2 994.0
З 4 40 км 6/0 1000 м
[Cb cap Ci sp]
+17.1 +5.6 47 +17 +20 1008.7 994.4
З 2 40 км 4/0
[Ac cuf Ci sp]
+16.4 +6.3 51 +17 +17 1008.6 994.3
штиль 0 40 км 3/0
[Cs]
+11.1 +7.4 78 +11 +11 1008.4 993.8
В 1 40 км 4/0
[Ac lent]
+7.5 +6.5 93 +6 +6 1007.9 993.2
В 2 40 км 9/0
[Ac As]
+8.8 +6.6 86 +7 +7 1006.4 991.8
С 3 40 км 8/0
[Ac As Cs]
+14.0 +9.7 75 +13 +16 1004.8 990.4
СВ 3 40 км 8/0 1000 м
[Cu med, cong As trans]
+16.8 +8.0 56 +17 +22 1004.0 989.8
С 4 40 км 8/0 1000 м
[Cb calv Ac As Cs]
+18.2 +7.1 48 +18 +23 1003.8 989.7
ЮВ 2 40 км в посл. час ливневой дождь 8/0 1500 м
[Cb calv Ci fib]
+15.4 +9.9 70 +15 +20 1006.8 992.5
Ю 2 40 км в посл. час ливневой дождь {гроза} 8/0 1000 м
[Cu med, cong Ac cuf Ci sp]
+13.1 +11.3 89 +12 +13 1009.3 994.8 3
З 1 40 км 4/0 1000 м
[Sc diur, vesp Ac As Ci sp]
+12.1 +10.1 88 +12 +12 1011.2 996.7
Ю 2 40 км 1/0
[Ac As]
+9.3 +8.7 96 +7 +7 1012.1 997.4
Ю 2 40 км 1/0
[Ac As Cs]
+9.7 +9.5 99 +8 +8 1013.0 998.3
Ю 2 40 км осадки на расстоянии 6/0
[Ac As Ci fib]
+14.7 +10.1 74 +14 +18 1013.1 998.7
ЮВ 2 15 км слаб. ливневой дождь 9/0 1000 м
[Cu Sc Ac As]
+15.0 +8.6 66 +15 +19 1014.0 999.6
В 2 10 км слаб. ливневой дождь {гроза} 10/0 1000 м
[Cb calv Ac As]
+11.6 +11.2 97 +10 +14 1014.3 999.7
Ю 2 40 км в посл. час ливневой дождь 9/0 1000 м
[Cb calv Ac As Ci fib]
+14.1 +11.5 84 +14 +17 1013.9 999.4
З 3 40 км {ливн. дождь} 9/0 300 м
[Cb calv Ci sp]
+13.8 +11.2 84 +13 +13 1013.4 998.9 14
Местоположение метеостанции Ниинисало (Финляндия): широта 61.85 долгота 22.47 высота над уровнем моря 136 м.
В архиве по умолчанию представлена погода в Ниинисало за последнюю неделю. Архивные данные за месяц целиком и за предыдущие месяцы, начиная с января 2011 года, Вы можете получить, выбрав интересующий диапазон дат из раскрывающегося списка и нажав кнопку "Найти!".
*Определитесь, кто Вы:
Внимание! Время в таблицах - всемирное. Для получения местного времени необходимо прибавить поправку, которая равна 1 ч.
Смотрите также архив погоды в соседних городах и на ближайших метеорологических станциях:
Партнеры нашего сайта:      
Пояснения к столбцам:
  • Ветер - указаны скорость ветра в м/с - средняя за 10 мин, порывы в срок и между сроками (в фигурных скобках) и направление, откуда дует ветер: С - северный,
  • СВ - северо-восточный, В - восточный, ЮВ - юго-восточный, Ю - южный, ЮЗ - юго-западный, З - западный, СЗ - северо-западный.
  • Видимость - горизонтальная дальность видимости в метрах или километрах. При видимости от 1 до 10 км при отсутствии осадков обычно наблюдается дымка, при ухудшении видимости до 1 км и менее - туман. В сухую погоду видимость может ухудшаться дымом, пылью или мглою.
  • Явления - указаны атмосферные явления, наблюдавшиеся в срок или в последний час перед сроком; фигурными скобками обозначены явления, наблюдавшиеся между сроками (за 1-3 часа до срока); квадратными скобками обозначены град или гололедные отложения с указанием их диаметра в мм.
  • Облачность - указаны через наклонную черту общая и нижняя облачность в баллах и высота нижней границы облаков в метрах; квадратными скобками обозначены формы облаков: Ci - перистые, Cs - перисто-слоистые, Cc - перисто-кучевые, Ac - высококучевые, As - высокослоистые, Sc - слоисто-кучевые, Ns - слоисто-дождевые, Cu - кучевые, Cb - кучево-дождевые. Подробнее классификацию облаков см. в Атласе облаков (PDF).
  • T - Температура воздуха - температура, измеренная на высоте 2 м над землей.
  • Td - Температура точки росы - температура, при понижении до которой содержащийся в воздухе водяной пар достигнет насыщения.
  • f - Относительная влажность воздуха - влажноcть воздуха, измеренная на высоте 2 м над землей.
  • Te - Эффективная температура - температура, которую ощущает одетый по сезону человек в тени. Характеристика душности погоды. При расчете учитывается влияние влажности воздуха и скорости ветра на теплоощущения человека.
  • Tes - Эффективная температура на солнце - температура, которую ощущает человек, с поправкой на солнечный нагрев. Характеристика знойности погоды. Зависит от высоты солнца над горизонтом, облачности и скорости ветра. Ночью, в пасмурную погоду, а также при ветре 12 м/с и более поправка равна нулю.
  • P - Атмосферное давление - приведенное к уровню моря атмосферное давление.
  • Po - Атмосферное давление - измеренное на уровне метеостанции атмосферное давление.
  • Tmin - Минимальная температура - минимум температуры воздуха на высоте 2 м над землей.
  • Tmax - Максимальная температура - максимум температуры воздуха на высоте 2 м над землей.
  • R - Количество осадков - Количество выпавших осадков за период времени, мм. При наведении курсора мыши на число - период времени, за который выпало указанное количество осадков.
  • R24 - Количество осадков - Количество выпавших осадков за 24 часа, мм.
  • S - Снежный покров - Высота снежного покрова, см. При наведении курсора мыши на число - состояние снежного покрова и степень покрытия местности в баллах.